Birchwood, AK

12:18 AM AKST on February 18, 2018 (GMT -0900)
Birchwood

Weather History for PABV - December, 2013

Change the Weather History Date:

Wednesday, December 4, 2013

  Actual Average (PAED) Record (PAED)
Temperature  
Mean Temperature 20 °F -  
Max Temperature 24 °F 20 °F 53 °F (2011)
Min Temperature 15 °F 7 °F -16 °F (1975)
Degree Days  
Heating Degree Days 46    
Moisture  
Dew Point 19 °F    
Average Humidity 96    
Maximum Humidity 100    
Minimum Humidity 93    
Precipitation  
Precipitation 0.00 in - - ()
Sea Level Pressure  
Sea Level Pressure 30.49 in    
Wind  
Wind Speed 2 mph (SSE)    
Max Wind Speed 9 mph    
Max Gust Speed -    
Visibility 10 miles    
Events      
Averages and records for this station are not official NWS values.
T = Trace of Precipitation, MM = Missing Value Source: NWS Daily Summary

Daily Weather History Graph

Daily Weather History Graph

Search for Another Location

Airport or City:

Trip Planner

Search our weather history database for the weather conditions in past years. The results will help you decide how hot, cold, wet, or windy it might be!

Date:

Astronomy

Dec. 04, 2013 Rise Set
Actual Time 9:53 AM AKST 3:43 PM AKST
Civil Twilight 8:53 AM AKST 4:43 PM AKST
Nautical Twilight 7:54 AM AKST 5:42 PM AKST
Astronomical Twilight 7:01 AM AKST 6:35 PM AKST
Moon 11:13 AM AKST (12/4) 6:25 PM AKST (12/4)
Length of Visible Light 7h 50m
Length of Day
5h 50m
Waxing Crescent, 5% of the Moon is Illuminated
Dec 4
Waxing Crescent
Dec 9
First Quarter
Dec 17
Full
Dec 25
Last Quarter
Jan 1
New

Hourly Weather History & Observations

Time (AKST) Temp. Windchill Dew Point Humidity Pressure Visibility Wind Dir Wind Speed Gust Speed Precip Events Conditions
12:16 AM 17.6 °F 12.3 °F 15.8 °F 93% 30.57 in 10.0 mi SE 3.5 mph - N/A   Mostly Cloudy
12:36 AM 17.6 °F 12.3 °F 15.8 °F 93% 30.57 in 10.0 mi SSE 3.5 mph - N/A   Partly Cloudy
12:56 AM 17.6 °F 12.3 °F 15.8 °F 93% 30.57 in 9.0 mi South 3.5 mph - N/A   Clear
1:16 AM 17.6 °F - 15.8 °F 93% 30.58 in 10.0 mi Calm Calm - N/A   Clear
1:36 AM 17.6 °F - 15.8 °F 93% 30.57 in 10.0 mi Calm Calm - N/A   Clear
1:56 AM 17.6 °F - 17.6 °F 100% 30.57 in 10.0 mi Calm Calm - N/A   Clear
2:16 AM 17.6 °F - 17.6 °F 100% 30.56 in 10.0 mi Calm Calm - N/A   Clear
2:36 AM 17.6 °F - 17.6 °F 100% 30.56 in 10.0 mi Calm Calm - N/A   Clear
2:56 AM 17.6 °F 12.3 °F 17.6 °F 100% 30.56 in 10.0 mi SSE 3.5 mph - N/A   Scattered Clouds
3:16 AM 17.6 °F - 17.6 °F 100% 30.56 in 10.0 mi Calm Calm - N/A   Scattered Clouds
3:36 AM 17.6 °F - 17.6 °F 100% 30.55 in 10.0 mi Calm Calm - N/A   Scattered Clouds
3:56 AM 17.6 °F - 15.8 °F 93% 30.55 in 10.0 mi Calm Calm - N/A   Clear
4:16 AM 15.8 °F - 15.8 °F 100% 30.56 in 10.0 mi Calm Calm - N/A   Scattered Clouds
4:36 AM 15.8 °F - 14.0 °F 93% 30.55 in 10.0 mi Calm Calm - N/A   Overcast
4:56 AM 15.8 °F - 15.8 °F 100% 30.54 in 10.0 mi Calm Calm - N/A   Mostly Cloudy
5:16 AM 15.8 °F - 15.8 °F 100% 30.53 in 10.0 mi Calm Calm - N/A   Clear
5:36 AM 15.8 °F - 15.8 °F 100% 30.52 in 10.0 mi Calm Calm - N/A   Clear
5:56 AM 15.8 °F 7.2 °F 15.8 °F 100% 30.52 in 10.0 mi North 5.8 mph - N/A   Clear
6:16 AM 17.6 °F - 15.8 °F 93% 30.52 in 10.0 mi Calm Calm - N/A   Clear
6:36 AM 17.6 °F - 15.8 °F 93% 30.52 in 10.0 mi Calm Calm - N/A   Clear
6:56 AM 17.6 °F - 15.8 °F 93% 30.51 in 10.0 mi Calm Calm - N/A   Clear
7:16 AM 17.6 °F 8.2 °F 15.8 °F 93% 30.51 in 10.0 mi SSE 6.9 mph - N/A   Clear
7:36 AM 17.6 °F - 15.8 °F 93% 30.51 in 10.0 mi Calm Calm - N/A   Clear
7:56 AM 17.6 °F - 15.8 °F 93% 30.50 in 10.0 mi Calm Calm - N/A   Clear
8:16 AM 17.6 °F 8.2 °F 15.8 °F 93% 30.50 in 10.0 mi SSE 6.9 mph - N/A   Clear
8:36 AM 17.6 °F 8.2 °F 15.8 °F 93% 30.51 in 10.0 mi SSE 6.9 mph - N/A   Clear
8:56 AM 17.6 °F 9.3 °F 15.8 °F 93% 30.51 in 10.0 mi SSE 5.8 mph - N/A   Partly Cloudy
9:16 AM 17.6 °F 6.4 °F 17.6 °F 100% 30.51 in 10.0 mi South 9.2 mph - N/A   Mostly Cloudy
9:36 AM 17.6 °F 10.7 °F 17.6 °F 100% 30.50 in 10.0 mi SSE 4.6 mph - N/A   Overcast
9:56 AM 19.4 °F - 19.4 °F 100% 30.50 in 10.0 mi Calm Calm - N/A   Scattered Clouds
10:16 AM 19.4 °F - 19.4 °F 100% 30.50 in 10.0 mi Calm Calm - N/A   Clear
10:36 AM 19.4 °F - 19.4 °F 100% 30.50 in 10.0 mi Calm Calm - N/A   Clear
10:56 AM 17.6 °F - 17.6 °F 100% 30.50 in 10.0 mi Calm Calm - N/A   Clear
11:16 AM 17.6 °F - 17.6 °F 100% 30.50 in 10.0 mi Calm Calm - N/A   Clear
11:36 AM 17.6 °F 12.3 °F 15.8 °F 93% 30.50 in 8.0 mi SW 3.5 mph - N/A   Clear
11:56 AM 17.6 °F - 17.6 °F 100% 30.50 in 10.0 mi Calm Calm - N/A   Mostly Cloudy
12:16 PM 17.6 °F - 17.6 °F 100% 30.50 in 10.0 mi Calm Calm - N/A   Overcast
12:36 PM 19.4 °F - 17.6 °F 93% 30.49 in 10.0 mi Calm Calm - N/A   Overcast
12:56 PM 21.2 °F - 21.2 °F 100% 30.49 in 10.0 mi Calm Calm - N/A   Overcast
1:16 PM 21.2 °F 16.4 °F 21.2 °F 100% 30.49 in 10.0 mi SE 3.5 mph - N/A   Overcast
1:36 PM 21.2 °F - 21.2 °F 100% 30.48 in 10.0 mi Calm Calm - N/A   Overcast
1:56 PM 23.0 °F 14.7 °F 21.2 °F 93% 30.48 in 10.0 mi SE 6.9 mph - N/A   Overcast
2:16 PM 21.2 °F - 21.2 °F 100% 30.47 in 10.0 mi Calm Calm - N/A   Mostly Cloudy
2:36 PM 21.2 °F 14.9 °F 19.4 °F 93% 30.47 in 10.0 mi NE 4.6 mph - N/A   Mostly Cloudy
2:56 PM 21.2 °F - 19.4 °F 93% 30.47 in 10.0 mi Calm Calm - N/A   Overcast
3:16 PM 21.2 °F - 19.4 °F 93% 30.47 in 10.0 mi Calm Calm - N/A   Overcast
3:36 PM 21.2 °F 16.4 °F 19.4 °F 93% 30.46 in 10.0 mi NNE 3.5 mph - N/A   Overcast
3:56 PM 21.2 °F - 21.2 °F 100% 30.46 in 10.0 mi Calm Calm - N/A   Overcast
4:16 PM 23.0 °F - 21.2 °F 93% 30.46 in 10.0 mi Calm Calm - N/A   Overcast
4:36 PM 23.0 °F - 21.2 °F 93% 30.46 in 10.0 mi Calm Calm - N/A   Overcast
4:56 PM 23.0 °F - 21.2 °F 93% 30.46 in 10.0 mi Calm Calm - N/A   Overcast
5:16 PM 23.0 °F - 21.2 °F 93% 30.45 in 10.0 mi Calm Calm - N/A   Overcast
5:36 PM 23.0 °F - 21.2 °F 93% 30.46 in 10.0 mi Calm Calm - N/A   Overcast
5:56 PM 23.0 °F 18.4 °F 21.2 °F 93% 30.45 in 10.0 mi South 3.5 mph - N/A   Overcast
6:16 PM 23.0 °F - 23.0 °F 100% 30.45 in 10.0 mi Calm Calm - N/A   Overcast
6:36 PM 23.0 °F - 23.0 °F 100% 30.45 in 10.0 mi Calm Calm - N/A   Overcast
6:56 PM 24.8 °F - 23.0 °F 93% 30.45 in 7.0 mi Calm Calm - N/A   Overcast
7:16 PM 24.8 °F 20.5 °F 23.0 °F 93% 30.46 in 10.0 mi South 3.5 mph - N/A   Overcast
7:36 PM 24.8 °F 20.5 °F 23.0 °F 93% 30.46 in 5.0 mi SW 3.5 mph - N/A   Overcast
7:56 PM 24.8 °F - 23.0 °F 93% 30.46 in 5.0 mi Calm Calm - N/A   Overcast
8:16 PM 24.8 °F - 23.0 °F 93% 30.45 in 8.0 mi Calm Calm - N/A   Overcast
8:36 PM 24.8 °F - 24.8 °F 100% 30.45 in 9.0 mi Calm Calm - N/A   Overcast
8:56 PM 24.8 °F - 24.8 °F 100% 30.44 in 10.0 mi Calm Calm - N/A   Overcast
9:16 PM 24.8 °F - 24.8 °F 100% 30.44 in 10.0 mi Calm Calm - N/A   Overcast
9:36 PM 24.8 °F - 24.8 °F 100% 30.44 in 10.0 mi Calm Calm - N/A   Overcast
9:56 PM 24.8 °F - 24.8 °F 100% 30.44 in 10.0 mi Calm Calm - N/A   Overcast
10:16 PM 24.8 °F - 24.8 °F 100% 30.44 in 10.0 mi Calm Calm - N/A   Overcast
10:36 PM 24.8 °F - 24.8 °F 100% 30.45 in 10.0 mi Calm Calm - N/A   Overcast
10:56 PM 24.8 °F - 23.0 °F 93% 30.45 in 10.0 mi Calm Calm - N/A   Overcast
11:16 PM 24.8 °F - 23.0 °F 93% 30.44 in 10.0 mi Calm Calm - N/A   Overcast
11:36 PM 24.8 °F - 23.0 °F 93% 30.44 in 10.0 mi Calm Calm - N/A   Overcast
11:56 PM 24.8 °F - 24.8 °F 100% 30.44 in 10.0 mi Calm Calm - N/A   Overcast